Regional Weather Roundup
Issued by NWS

Home | Current Version | Previous Version | Graphics & Text | Print | Product List | Glossary On
Versions: 1 2 3 4 5 6 7 8 9 10 11 12 13 14 15 16 17 18 19 20 21 22 23 24 25 26 27 28 29 30 31 32 33 34 35 36 37 38 39 40 41 42 43 44 45 46 47 48 49
000
ASUS45 KBOU 020007
RWRCO

WEATHER ROUNDUP FOR COLORADO
NATIONAL WEATHER SERVICE DENVER/BOULDER CO
500 PM MST SUN MAR 01 2015

NOTE: "FAIR" INDICATES FEW OR NO CLOUDS BELOW 12000 FEET WITH NO
SIGNIFICANT WEATHER AND/OR OBSTRUCTIONS TO VISIBILITY.

COZ001>005-013-030-031-020100-
...NORTHWEST COLORADO...

CITY           SKY/WX    TMP DP  RH WIND       PRES   REMARKS
CRAIG          PTSUNNY   35  24  64 E5        30.07S WCI  31
HAYDEN         PTSUNNY   30  21  69 S7        30.06S WCI  23
MEEKER         CLOUDY    34  27  75 CALM      30.04F
MOUNT WERNER   NOT AVBL
STEAMBOAT SPGS CLOUDY    30  22  71 CALM      30.06S
WALDEN         MOCLDY    30  21  69 E3        30.04F
$$

COZ006>008-011-020100-
...WEST CENTRAL VALLEYS...

CITY           SKY/WX    TMP DP  RH WIND       PRES   REMARKS
GRAND JUNCTION CLOUDY    44  29  55 SE3       30.04F
MONTROSE       FLURRIES  34  32  92 SW5       30.09S WCI  30
EAGLE          CLOUDY    37  27  65 S8        30.08F
RIFLE          CLOUDY    44  26  49 SE7       30.04F
DELTA          CLOUDY    44  32  63 SE5       30.07S
NUCLA          LGT RAIN  36  32  87 CALM      30.10S
$$

COZ017>023-064>068-020100-
...SOUTHWEST COLORADO...

CITY           SKY/WX    TMP DP  RH WIND       PRES   REMARKS
DURANGO        CLOUDY    36  34  92 CALM      30.08S
CORTEZ         CLOUDY    41  35  79 CALM      30.05S
PAGOSA SPRINGS CLOUDY    36  35  96 CALM      30.11S
TELLURIDE      LGT SNOW  35  29  79 CALM      30.07S
WOLF CREEK PAS CLOUDY    23  23 100 SW26      30.13S WCI   6
$$

COZ009-010-012-014-032>034-037-058>063-020100-
...CENTRAL COLORADO...

CITY           SKY/WX    TMP DP  RH WIND       PRES   REMARKS
ASPEN          LGT SNOW  30  26  85 NW3       30.05F FOG
BUENA VISTA    CLOUDY    33  27  77 NW6       30.07R WCI  28
COPPER MTN     LGT SNOW  23  16  74 SE6       30.07S WCI  16
BERTHOUD PASS  SNOW      12   7  79 W6        30.08S VSB 1/2 WCI   3
COTTONWOOD PAS LGT SNOW  30  27  86 SE5       30.07S VSB 3/4 WCI  25
GUNNISON       CLOUDY    28  25  86 CALM      30.11S
KREMMLING      CLOUDY    36  19  51 S6        30.06S
LEADVILLE      LGT SNOW  23  21  92 W5        30.05S FOG     WCI  17
SALIDA         CLOUDY    34  27  75 E8        30.15R WCI  27
SUNLIGHT       LGT SNOW  27  23  86 CALM        N/A  VSB 1
WILKERSON PASS CLOUDY    23  19  86 SW5       30.12S WCI  17
$$

COZ069>075-020100-
...SAN LUIS VALLEY/SANGRE DE CRISTO MOUNTAINS...

CITY           SKY/WX    TMP DP  RH WIND       PRES   REMARKS
ALAMOSA        CLOUDY    33  28  81 W6        30.08S WCI  28
LA VETA PASS   LGT SNOW  30  28  93 S16G24    30.10S WCI  19
SAGUACHE       LGT SNOW  32  32 100 CALM      30.09S
$$

COZ035-036-038>040-020100-
...NORTHERN COLORADO FRONT RANGE...

CITY           SKY/WX    TMP DP  RH WIND       PRES   REMARKS
DENVER INTL AP CLOUDY    23  15  71 CALM      30.21F
DMNS CITY PARK   N/A     24  14  67 E6        30.21F WCI  17
AURORA         MOCLDY    22  15  72 SE5       30.21F WCI  16
FRONT RANGE AP NOT AVBL
ERIE MUNI ARPT MOCLDY    26  17  68 E5        30.22F WCI  20
BOULDER MUN AP MOCLDY    27  19  74 CALM      30.21F
CENTENNIAL     MOCLDY    22  14  71 NE7       30.19F WCI  13
BROOMFIELD     CLOUDY    25  18  74 VRB5      30.21S WCI  19
FORT COLLINS   CLOUDY    25  16  68 CALM      30.25S
LONGMONT       CLOUDY    28  17  62 CALM      30.25S
$$

COZ041-046-047-076>085-087-088-020100-
...PIKES PEAK/PALMER DIVIDE AND SOUTHERN FOOTHILLS...

CITY           SKY/WX    TMP DP  RH WIND       PRES   REMARKS
COLO. SPRINGS  LGT SNOW  24  19  81 S9        30.20R FOG     WCI  14
A. F. ACADEMY  MIX PCPN  25  19  80 S9        30.17R WCI  15
ELLICOTT       NOT AVBL
FALCON         CLOUDY    22  16  78 E7        30.18S WCI  13
FORT CARSON    MIX PCPN  23  19  86 S8        30.20R WCI  14
LIMON          CLOUDY    26  18  71 CALM      30.23R
MONUMENT HILL  CLOUDY    19  14  79 E6        30.15S WCI  11
TRINIDAD       CLOUDY    23  17  78 N7        30.20S WCI  15
$$

COZ042>045-048>051-090-091-020100-
...NORTHEAST COLORADO...

CITY           SKY/WX    TMP DP  RH WIND       PRES   REMARKS
GREELEY ARPT   CLOUDY    28  14  54 W5        30.23S WCI  23
AKRON          PTCLDY    30  15  53 N3        30.24R
BURLINGTON     CLOUDY    30  17  58 NE8       30.25S WCI  22
WRAY           MOCLDY    35  14  43 NE6       30.28R WCI  30
STERLING       PTCLDY    32  18  55 NW5       30.25F WCI  27
HOLYOKE        NOT AVBL
FORT MORGAN    CLOUDY    29  16  57 N7        30.25F WCI  22
$$

COZ086-089-092>099-020100-
...SOUTHEAST COLORADO...

CITY           SKY/WX    TMP DP  RH WIND       PRES   REMARKS
PUEBLO         CLOUDY    27  19  72 S5        30.26R WCI  22
LA JUNTA       CLOUDY    30  20  66 CALM      30.27S
LAMAR          CLOUDY    30  20  66 NE3       30.28R
SPRINGFIELD      N/A     27  20  75 NE6       30.25R WCI  20
$$


USA.gov is the U.S. government's official web portal to all federal, state and local government web resources and services.